Location: Freiburg+im+Breisgau
(48.0359°N, 7.8195°E)
Time: 15:20:41
(UTC+01:00)

ISS - Pass Details

Date: 08 January 2018
Orbit: 402 x 407 km, 51.6° (Epoch: 21 January)

Event Time Altitude Azimuth Distance (km) Brightness Sun altitude
Exits shadow 05:05:54 10° 67° (ENE) 1,458 -0.3 -31.1°
Drops below altitude 10° 05:05:55 10° 67° (ENE) 1,469 -0.2 -31.1°
Sets 05:08:04 0° 74° (ENE) 2,330 1.1 -30.8°
